Location: Unspecified
(0.0000°N, 0.0000°E)
Time: 22:38:17
(UTC+01:00)

Centaur D-1AR AC-41 - Visible Passes

Search period start: 28 November 2014 00:00
Search period end: 08 December 2014 00:00
Orbit: 638 x 36205 km, 21.3° (Epoch: 27 November)

Date Brightness Start Highest point End Pass type
(mag) Time Alt. Az. Time Alt. Az. Time Alt. Az.
28 Nov 10.0 22:38:16 10° W 23:59:31 28° W 03:10:23 10° WSW visible
29 Nov 7.5 19:44:53 10° WNW 21:16:05 69° WSW 05:55:36 10° E visible
30 Nov 8.0 17:09:18 10° WNW 17:38:08 75° NE 03:22:35 10° ESE visible
01 Dec 6.7 14:38:13 10° NW 22:30:27 55° SE 00:43:01 10° ESE visible
02 Dec 9.6 17:36:17 10° ESE 20:12:10 22° ESE 21:36:36 10° ESE visible
04 Dec 5.0 06:20:02 10° WSW 07:03:45 88° NNW 07:09:17 10° ENE visible
04 Dec 7.7 18:24:46 10° WNW 19:32:42 85° SW 04:38:03 10° E visible
05 Dec 7.4 15:51:42 10° NW 22:30:32 67° SSE 02:03:06 10° ESE visible
06 Dec 6.1 13:21:34 10° NNW 21:21:44 41° ESE 14:07:13 10° E visible
07 Dec 10.2 22:44:51 10° W 23:56:54 21° W 00:00:00 21° W visible
